Tracking 23752 objects as of 24-Oct-2021
HD Live streaming from Space Station
objects crossing your sky now

DIAMANT B-P4 DEB

Track DIAMANT B-P4 DEB now!
10-day predictions


NORAD ID: 7654
Int'l Code: 1975-010C
Perigee: 792.9 km
Apogee: 1,048.1 km
Inclination: 49.8 °
Period: 103.3 minutes
Semi major axis: 7291 km
RCS: 0.0394 m2 (small)
Launch date: February 6, 1975
Source: France (FR)
Launch site: FRENCH GUIANA (FRGUI)

Note: This is SATELLITE DEBRIS
aabbcc
Your satellite tracking list
Your tracking list is empty




NASA's NSSDC Master Catalog

Two Line Element Set (TLE):
1 07654U 75010C   21296.71331096  .00000047  00000-0  12847-3 0  9991
2 07654  49.8439 184.5128 0174999 138.6100 222.8209 13.94358653372990
Source of the keplerian elements: AFSPC